When you browse on this site, cookies collect data to enhance your experience and personalize the content and advertising you see.
Visit our Privacy Policy to learn more. By continuing to use the site, you agree to this use of cookies and data.
  • en France
  • Liste des pays
  • À 7 jours
  • Température de l'eau
  • Carte satellitaire
  • Carte météo
  • Widgets météo
  • user-avatar
    Se connecter

    Météo par heure à Yevlakh

    Ce jour, 16 Février, Samedi

    Heure Température Précipitation Vent Pression Humidité
    00:00 +8°C° 0.2 mm 2 m/s 761 mmHg 90%
    01:00 +7°C° 0.3 mm 2 m/s 761 mmHg 90%
    02:00 +7°C° 0.3 mm 2 m/s 761 mmHg 91%
    03:00 +7°C° 0.3 mm 2 m/s 761 mmHg 91%
    04:00 +7°C° 0.5 mm 2 m/s 761 mmHg 91%
    05:00 +8°C° 0.5 mm 1 m/s 761 mmHg 91%
    06:00 +7°C° 0.5 mm 1 m/s 761 mmHg 91%
    07:00 +7°C° 0.6 mm 2 m/s 761 mmHg 89%
    08:00 +7°C° 0.6 mm 2 m/s 761 mmHg 87%
    09:00 +7°C° 0.6 mm 2 m/s 761 mmHg 85%
    10:00 +8°C° 0.1 mm 3 m/s 761 mmHg 76%
    11:00 +8°C° 0.1 mm 3 m/s 761 mmHg 68%
    12:00 +8°C° 0.1 mm 4 m/s 760 mmHg 60%
    13:00 +10°C° 0 mm 4 m/s 760 mmHg 56%
    14:00 +11°C° 0 mm 4 m/s 760 mmHg 52%
    15:00 +12°C° 0 mm 4 m/s 759 mmHg 47%
    16:00 +11°C° 0 mm 3 m/s 760 mmHg 50%
    17:00 +10°C° 0 mm 2 m/s 760 mmHg 53%
    18:00 +11°C° 0 mm 1 m/s 760 mmHg 56%
    19:00 +10°C° 0 mm 1 m/s 760 mmHg 60%
    20:00 +10°C° 0 mm 1 m/s 760 mmHg 63%
    21:00 +9°C° 0 mm 1 m/s 761 mmHg 67%
    22:00 +9°C° 0 mm 1 m/s 761 mmHg 68%
    23:00 +8°C° 0 mm 1 m/s 761 mmHg 69%

    Demain, 17 Février, Dimanche

    Heure Température Précipitation Vent Pression Humidité
    00:00 +8°C° 0 mm 1 m/s 761 mmHg 70%
    01:00 +8°C° 0 mm 1 m/s 760 mmHg 71%
    02:00 +8°C° 0 mm 1 m/s 760 mmHg 72%
    03:00 +7°C° 0 mm 1 m/s 760 mmHg 72%
    04:00 +7°C° 0 mm 1 m/s 760 mmHg 72%
    05:00 +7°C° 0 mm 1 m/s 761 mmHg 72%
    06:00 +6°C° 0 mm 1 m/s 761 mmHg 72%
    07:00 +7°C° 0 mm 1 m/s 761 mmHg 67%
    08:00 +7°C° 0 mm 2 m/s 761 mmHg 62%
    09:00 +8°C° 0 mm 2 m/s 761 mmHg 56%
    10:00 +9°C° 0 mm 3 m/s 761 mmHg 49%
    11:00 +11°C° 0 mm 4 m/s 761 mmHg 42%
    12:00 +12°C° 0 mm 5 m/s 761 mmHg 35%
    13:00 +13°C° 0 mm 5 m/s 761 mmHg 33%
    14:00 +13°C° 0 mm 5 m/s 760 mmHg 32%
    15:00 +14°C° 0 mm 6 m/s 760 mmHg 30%
    16:00 +13°C° 0 mm 5 m/s 760 mmHg 35%
    17:00 +12°C° 0 mm 3 m/s 761 mmHg 39%
    18:00 +12°C° 0 mm 2 m/s 761 mmHg 43%
    19:00 +10°C° 0 mm 2 m/s 761 mmHg 48%
    20:00 +10°C° 0 mm 1 m/s 761 mmHg 52%
    21:00 +9°C° 0 mm 1 m/s 762 mmHg 57%
    22:00 +9°C° 0 mm 1 m/s 761 mmHg 62%
    23:00 +8°C° 0 mm 1 m/s 761 mmHg 66%

    Après-demain, 18 Février, Lundi

    Heure Température Précipitation Vent Pression Humidité
    00:00 +7°C° 0 mm 1 m/s 761 mmHg 71%
    01:00 +7°C° 0 mm 1 m/s 761 mmHg 70%
    02:00 +7°C° 0 mm 1 m/s 760 mmHg 69%
    03:00 +6°C° 0 mm 2 m/s 760 mmHg 68%
    04:00 +5°C° 0 mm 2 m/s 760 mmHg 66%
    05:00 +4°C° 0 mm 3 m/s 760 mmHg 64%
    06:00 +4°C° 0 mm 3 m/s 759 mmHg 62%
    07:00 +5°C° 0 mm 4 m/s 759 mmHg 57%
    08:00 +5°C° 0 mm 6 m/s 759 mmHg 52%
    09:00 +8°C° 0 mm 7 m/s 759 mmHg 47%
    10:00 +9°C° 0 mm 7 m/s 758 mmHg 43%
    11:00 +10°C° 0 mm 8 m/s 757 mmHg 39%
    12:00 +12°C° 0 mm 8 m/s 756 mmHg 35%
    13:00 +13°C° 0 mm 8 m/s 756 mmHg 34%
    14:00 +13°C° 0 mm 8 m/s 755 mmHg 32%
    15:00 +15°C° 0 mm 9 m/s 755 mmHg 31%
    16:00 +14°C° 0 mm 7 m/s 755 mmHg 34%
    17:00 +13°C° 0 mm 6 m/s 755 mmHg 37%
    18:00 +12°C° 0 mm 4 m/s 755 mmHg 40%
    19:00 +10°C° 0 mm 5 m/s 756 mmHg 42%
    20:00 +9°C° 0 mm 5 m/s 756 mmHg 44%
    21:00 +8°C° 0 mm 5 m/s 756 mmHg 46%
    22:00 +8°C° 0 mm 5 m/s 756 mmHg 47%
    23:00 +7°C° 0 mm 4 m/s 757 mmHg 49%

    19 Février, Mardi

    Heure Température Précipitation Vent Pression Humidité
    00:00 +7°C° 0 mm 4 m/s 757 mmHg 51%
    01:00 +7°C° 0 mm 3 m/s 757 mmHg 53%
    02:00 +7°C° 0 mm 2 m/s 757 mmHg 55%
    03:00 +7°C° 0 mm 1 m/s 758 mmHg 57%
    04:00 +7°C° 0 mm 1 m/s 758 mmHg 60%
    05:00 +6°C° 0 mm 2 m/s 759 mmHg 63%
    06:00 +6°C° 0 mm 2 m/s 759 mmHg 66%
    07:00 +5°C° 0.2 mm 3 m/s 760 mmHg 68%
    08:00 +5°C° 0.2 mm 4 m/s 760 mmHg 69%
    09:00 +6°C° 0.2 mm 5 m/s 761 mmHg 70%
    10:00 +6°C° 0.4 mm 5 m/s 762 mmHg 70%
    11:00 +6°C° 0.4 mm 5 m/s 762 mmHg 69%
    12:00 +6°C° 0.4 mm 5 m/s 762 mmHg 69%
    13:00 +4°C° 0.2 mm 6 m/s 763 mmHg 69%
    14:00 +4°C° 0.2 mm 6 m/s 763 mmHg 69%
    15:00 +4°C° 0.2 mm 7 m/s 764 mmHg 69%
    16:00 +3°C° 0 mm 7 m/s 765 mmHg 70%
    17:00 +3°C° 0 mm 7 m/s 766 mmHg 70%
    18:00 +2°C° 0 mm 7 m/s 767 mmHg 71%
    19:00 +2°C° 0.1 mm 6 m/s 768 mmHg 72%
    20:00 +1°C° 0.1 mm 6 m/s 769 mmHg 73%
    21:00 +1°C° 0.1 mm 6 m/s 770 mmHg 74%
    22:00 +1°C° 0 mm 5 m/s 770 mmHg 74%
    23:00 +1°C° 0 mm 5 m/s 771 mmHg 73%

    20 Février, Mercredi

    Heure Température Précipitation Vent Pression Humidité
    00:00 +1°C° 0 mm 5 m/s 771 mmHg 73%
    01:00 0°C° 0 mm 4 m/s 771 mmHg 74%
    02:00 +1°C° 0 mm 3 m/s 771 mmHg 75%
    03:00 +1°C° 0 mm 3 m/s 772 mmHg 76%
    04:00 +2°C° 0 mm 2 m/s 772 mmHg 79%
    05:00 +1°C° 0 mm 2 m/s 772 mmHg 82%
    06:00 +1°C° 0 mm 2 m/s 772 mmHg 84%
    07:00 +1°C° 0 mm 2 m/s 772 mmHg 82%
    08:00 +2°C° 0 mm 2 m/s 772 mmHg 79%
    09:00 +2°C° 0 mm 3 m/s 772 mmHg 77%
    10:00 +2°C° 0 mm 3 m/s 772 mmHg 73%
    11:00 +3°C° 0 mm 3 m/s 771 mmHg 69%
    12:00 +4°C° 0 mm 3 m/s 771 mmHg 64%
    13:00 +5°C° 0 mm 3 m/s 770 mmHg 63%
    14:00 +5°C° 0 mm 3 m/s 770 mmHg 62%
    15:00 +7°C° 0 mm 2 m/s 769 mmHg 60%
    16:00 +6°C° 0 mm 2 m/s 769 mmHg 64%
    17:00 +4°C° 0 mm 3 m/s 769 mmHg 68%
    18:00 +4°C° 0 mm 3 m/s 769 mmHg 72%
    19:00 +4°C° 0 mm 2 m/s 769 mmHg 76%
    20:00 +4°C° 0 mm 2 m/s 769 mmHg 79%
    21:00 +3°C° 0 mm 2 m/s 769 mmHg 82%
    22:00 +3°C° 0 mm 2 m/s 769 mmHg 83%
    23:00 +4°C° 0 mm 1 m/s 768 mmHg 83%

    21 Février, Jeudi

    Heure Température Précipitation Vent Pression Humidité
    00:00 +3°C° 0 mm 1 m/s 768 mmHg 83%
    01:00 +3°C° 0 mm 1 m/s 768 mmHg 85%
    02:00 +3°C° 0 mm 1 m/s 767 mmHg 87%
    03:00 +3°C° 0 mm 1 m/s 767 mmHg 89%
    04:00 +3°C° 0 mm 1 m/s 767 mmHg 90%
    05:00 +2°C° 0 mm 1 m/s 767 mmHg 92%
    06:00 +2°C° 0 mm 1 m/s 766 mmHg 93%
    07:00 +3°C° 0 mm 1 m/s 766 mmHg 89%
    08:00 +4°C° 0 mm 1 m/s 766 mmHg 85%
    09:00 +4°C° 0 mm 0 m/s 766 mmHg 80%
    10:00 +6°C° 0 mm 1 m/s 765 mmHg 72%
    11:00 +8°C° 0 mm 1 m/s 765 mmHg 63%
    12:00 +9°C° 0 mm 1 m/s 764 mmHg 55%
    13:00 +10°C° 0 mm 1 m/s 764 mmHg 50%
    14:00 +11°C° 0 mm 1 m/s 764 mmHg 45%
    15:00 +12°C° 0 mm 1 m/s 763 mmHg 41%
    16:00 +11°C° 0 mm 1 m/s 763 mmHg 44%
    17:00 +10°C° 0 mm 2 m/s 764 mmHg 47%
    18:00 +9°C° 0 mm 2 m/s 764 mmHg 50%
    19:00 +8°C° 0 mm 2 m/s 764 mmHg 54%
    20:00 +8°C° 0 mm 2 m/s 764 mmHg 57%
    21:00 +7°C° 0 mm 2 m/s 764 mmHg 61%
    22:00 +7°C° 0 mm 1 m/s 764 mmHg 63%
    23:00 +7°C° 0 mm 1 m/s 764 mmHg 65%
    Voir plus